owner,sensor,date,latitude,longitude,air_temperature,qcFlag 
DISL,ioos:station:DISL:KATA:1,2011-04-15T18:30:00Z,30.2583,-88.2131,23.6,1111122 
DISL,ioos:station:DISL:KATA:1,2011-04-15T19:00:00Z,30.2583,-88.2131,23.67,1111122 
DISL,ioos:station:DISL:KATA:1,2011-04-15T19:30:00Z,30.2583,-88.2131,23.74,1111122 
DISL,ioos:station:DISL:KATA:1,2011-04-15T20:00:00Z,30.2583,-88.2131,23.91,1111122 
DISL,ioos:station:DISL:KATA:1,2011-04-15T20:30:00Z,30.2583,-88.2131,23.91,1111122 
DISL,ioos:station:DISL:KATA:1,2011-04-15T21:00:00Z,30.2583,-88.2131,23.91,1111122 
DISL,ioos:station:DISL:KATA:1,2011-04-15T21:30:00Z,30.2583,-88.2131,23.87,1111122 
DISL,ioos:station:DISL:KATA:1,2011-04-15T22:00:00Z,30.2583,-88.2131,23.91,1111122 
DISL,ioos:station:DISL:KATA:1,2011-04-15T22:30:00Z,30.2583,-88.2131,23.94,1111122 
DISL,ioos:station:DISL:KATA:1,2011-04-15T23:00:00Z,30.2583,-88.2131,23.91,1111122 
DISL,ioos:station:DISL:KATA:1,2011-04-15T23:30:00Z,30.2583,-88.2131,23.84,1111122 
DISL,ioos:station:DISL:KATA:1,2011-04-16T00:00:00Z,30.2583,-88.2131,23.91,1111122 
DISL,ioos:station:DISL:KATA:1,2011-04-16T00:30:00Z,30.2583,-88.2131,23.84,1111122 
DISL,ioos:station:DISL:KATA:1,2011-04-16T01:00:00Z,30.2583,-88.2131,23.77,1111122 
DISL,ioos:station:DISL:KATA:1,2011-04-16T01:30:00Z,30.2583,-88.2131,23.77,1111122 
DISL,ioos:station:DISL:KATA:1,2011-04-16T02:00:00Z,30.2583,-88.2131,23.64,1111122 
DISL,ioos:station:DISL:KATA:1,2011-04-16T02:30:00Z,30.2583,-88.2131,23.88,1111122 
DISL,ioos:station:DISL:KATA:1,2011-04-16T03:00:00Z,30.2583,-88.2131,23.88,1111122 
DISL,ioos:station:DISL:KATA:1,2011-04-16T03:30:00Z,30.2583,-88.2131,23.84,1111122 
DISL,ioos:station:DISL:KATA:1,2011-04-16T04:00:00Z,30.2583,-88.2131,23.71,1111122 
DISL,ioos:station:DISL:KATA:1,2011-04-16T04:30:00Z,30.2583,-88.2131,23.6,1111122 
DISL,ioos:station:DISL:KATA:1,2011-04-16T05:00:00Z,30.2583,-88.2131,23.5,1111122 
DISL,ioos:station:DISL:KATA:1,2011-04-16T05:30:00Z,30.2583,-88.2131,23.54,1111122 
DISL,ioos:station:DISL:KATA:1,2011-04-16T06:00:00Z,30.2583,-88.2131,23.98,1111122 
DISL,ioos:station:DISL:KATA:1,2011-04-16T06:30:00Z,30.2583,-88.2131,24.28,1111122 
DISL,ioos:station:DISL:KATA:1,2011-04-16T07:00:00Z,30.2583,-88.2131,23.81,1111122 
DISL,ioos:station:DISL:KATA:1,2011-04-16T07:30:00Z,30.2583,-88.2131,23.27,1111122 
DISL,ioos:station:DISL:KATA:1,2011-04-16T08:00:00Z,30.2583,-88.2131,22.69,1111122 
DISL,ioos:station:DISL:KATA:1,2011-04-16T08:30:00Z,30.2583,-88.2131,22.22,1111122 
DISL,ioos:station:DISL:KATA:1,2011-04-16T09:00:00Z,30.2583,-88.2131,21.55,1111122 
DISL,ioos:station:DISL:KATA:1,2011-04-16T09:30:00Z,30.2583,-88.2131,21.05,1111122 
DISL,ioos:station:DISL:KATA:1,2011-04-16T10:00:00Z,30.2583,-88.2131,20.85,1111122 
DISL,ioos:station:DISL:KATA:1,2011-04-16T10:30:00Z,30.2583,-88.2131,20.44,1111122 
DISL,ioos:station:DISL:KATA:1,2011-04-16T11:00:00Z,30.2583,-88.2131,19.77,1111122 
DISL,ioos:station:DISL:KATA:1,2011-04-16T11:30:00Z,30.2583,-88.2131,19.74,1111122 
DISL,ioos:station:DISL:KATA:1,2011-04-16T12:00:00Z,30.2583,-88.2131,19.54,1111122 
DISL,ioos:station:DISL:KATA:1,2011-04-16T12:30:00Z,30.2583,-88.2131,19.44,1111122 
DISL,ioos:station:DISL:KATA:1,2011-04-16T13:00:00Z,30.2583,-88.2131,19.5,1111122 
DISL,ioos:station:DISL:KATA:1,2011-04-16T13:30:00Z,30.2583,-88.2131,18.88,1111122 
DISL,ioos:station:DISL:KATA:1,2011-04-16T14:00:00Z,30.2583,-88.2131,18.95,1111122 
DISL,ioos:station:DISL:KATA:1,2011-04-16T14:30:00Z,30.2583,-88.2131,18.2,1111122 
DISL,ioos:station:DISL:KATA:1,2011-04-16T15:00:00Z,30.2583,-88.2131,18.27,1111122 
DISL,ioos:station:DISL:KATA:1,2011-04-16T15:30:00Z,30.2583,-88.2131,18.24,1111122 
DISL,ioos:station:DISL:KATA:1,2011-04-16T16:00:00Z,30.2583,-88.2131,18.37,1111122 
DISL,ioos:station:DISL:KATA:1,2011-04-16T16:30:00Z,30.2583,-88.2131,18.44,1111122 
DISL,ioos:station:DISL:KATA:1,2011-04-16T17:00:00Z,30.2583,-88.2131,18.71,1111122 
DISL,ioos:station:DISL:KATA:1,2011-04-16T17:30:00Z,30.2583,-88.2131,19.09,1111122 
DISL,ioos:station:DISL:KATA:1,2011-04-16T18:00:00Z,30.2583,-88.2131,19.02,1111122 
DISL,ioos:station:DISL:KATA:1,2011-04-16T18:30:00Z,30.2583,-88.2131,19.12,1111122 
DISL,ioos:station:DISL:KATA:1,2011-04-16T19:00:00Z,30.2583,-88.2131,19.43,1111122 
DISL,ioos:station:DISL:KATA:1,2011-04-16T19:30:00Z,30.2583,-88.2131,19.9,1111122 
DISL,ioos:station:DISL:KATA:1,2011-04-16T20:00:00Z,30.2583,-88.2131,20.34,1111122 
DISL,ioos:station:DISL:KATA:1,2011-04-16T20:30:00Z,30.2583,-88.2131,20.61,1111122 
DISL,ioos:station:DISL:KATA:1,2011-04-16T21:00:00Z,30.2583,-88.2131,21.02,1111122 
DISL,ioos:station:DISL:KATA:1,2011-04-16T21:30:00Z,30.2583,-88.2131,21.28,1111122 
DISL,ioos:station:DISL:KATA:1,2011-04-16T22:00:00Z,30.2583,-88.2131,21.76,1111122 
DISL,ioos:station:DISL:KATA:1,2011-04-16T22:30:00Z,30.2583,-88.2131,22.09,1111122 
DISL,ioos:station:DISL:KATA:1,2011-04-16T23:00:00Z,30.2583,-88.2131,22.93,1111122 
DISL,ioos:station:DISL:KATA:1,2011-04-16T23:30:00Z,30.2583,-88.2131,22.9,1111122 
DISL,ioos:station:DISL:KATA:1,2011-04-17T00:00:00Z,30.2583,-88.2131,22.7,1111122 
DISL,ioos:station:DISL:KATA:1,2011-04-17T00:30:00Z,30.2583,-88.2131,22.23,1111122 
DISL,ioos:station:DISL:KATA:1,2011-04-17T01:00:00Z,30.2583,-88.2131,21.93,1111122 
DISL,ioos:station:DISL:KATA:1,2011-04-17T01:30:00Z,30.2583,-88.2131,21.83,1111122 
DISL,ioos:station:DISL:KATA:1,2011-04-17T02:00:00Z,30.2583,-88.2131,21.56,1111122 
DISL,ioos:station:DISL:KATA:1,2011-04-17T02:30:00Z,30.2583,-88.2131,21.09,1111122 
DISL,ioos:station:DISL:KATA:1,2011-04-17T03:00:00Z,30.2583,-88.2131,20.65,1111122 
DISL,ioos:station:DISL:KATA:1,2011-04-17T03:30:00Z,30.2583,-88.2131,20.24,1111122 
DISL,ioos:station:DISL:KATA:1,2011-04-17T04:00:00Z,30.2583,-88.2131,19.8,1111122 
DISL,ioos:station:DISL:KATA:1,2011-04-17T04:30:00Z,30.2583,-88.2131,19.54,1111122 
DISL,ioos:station:DISL:KATA:1,2011-04-17T05:00:00Z,30.2583,-88.2131,18.69,1111122 
DISL,ioos:station:DISL:KATA:1,2011-04-17T05:30:00Z,30.2583,-88.2131,17.91,1111122 
DISL,ioos:station:DISL:KATA:1,2011-04-17T06:00:00Z,30.2583,-88.2131,17.5,1111122 
DISL,ioos:station:DISL:KATA:1,2011-04-17T06:30:00Z,30.2583,-88.2131,17.03,1111122 
DISL,ioos:station:DISL:KATA:1,2011-04-17T07:00:00Z,30.2583,-88.2131,16.77,1111122 
DISL,ioos:station:DISL:KATA:1,2011-04-17T07:30:00Z,30.2583,-88.2131,16.5,1111122 
DISL,ioos:station:DISL:KATA:1,2011-04-17T08:00:00Z,30.2583,-88.2131,16.37,1111122 
DISL,ioos:station:DISL:KATA:1,2011-04-17T08:30:00Z,30.2583,-88.2131,16.43,1111122 
DISL,ioos:station:DISL:KATA:1,2011-04-17T09:00:00Z,30.2583,-88.2131,15.96,1111122 
DISL,ioos:station:DISL:KATA:1,2011-04-17T09:30:00Z,30.2583,-88.2131,15.08,1111122 
DISL,ioos:station:DISL:KATA:1,2011-04-17T10:00:00Z,30.2583,-88.2131,14.61,1111122 
DISL,ioos:station:DISL:KATA:1,2011-04-17T10:30:00Z,30.2583,-88.2131,14.44,1111122 
DISL,ioos:station:DISL:KATA:1,2011-04-17T11:00:00Z,30.2583,-88.2131,14.41,1111122 
DISL,ioos:station:DISL:KATA:1,2011-04-17T11:30:00Z,30.2583,-88.2131,14.95,1111122 
DISL,ioos:station:DISL:KATA:1,2011-04-17T12:00:00Z,30.2583,-88.2131,14.88,1111122 
DISL,ioos:station:DISL:KATA:1,2011-04-17T12:30:00Z,30.2583,-88.2131,15.05,1111122 
DISL,ioos:station:DISL:KATA:1,2011-04-17T13:00:00Z,30.2583,-88.2131,14.64,1111122 
DISL,ioos:station:DISL:KATA:1,2011-04-17T13:30:00Z,30.2583,-88.2131,14.67,1111122 
DISL,ioos:station:DISL:KATA:1,2011-04-17T14:00:00Z,30.2583,-88.2131,14.74,1111122 
DISL,ioos:station:DISL:KATA:1,2011-04-17T14:30:00Z,30.2583,-88.2131,14.63,1111122 
DISL,ioos:station:DISL:KATA:1,2011-04-17T15:00:00Z,30.2583,-88.2131,14.97,1111122 
DISL,ioos:station:DISL:KATA:1,2011-04-17T15:30:00Z,30.2583,-88.2131,15.35,1111122 
DISL,ioos:station:DISL:KATA:1,2011-04-17T16:00:00Z,30.2583,-88.2131,15.72,1111122 
DISL,ioos:station:DISL:KATA:1,2011-04-17T16:30:00Z,30.2583,-88.2131,15.91,1111122 
DISL,ioos:station:DISL:KATA:1,2011-04-17T17:00:00Z,30.2583,-88.2131,16.69,1111122 
DISL,ioos:station:DISL:KATA:1,2011-04-17T17:30:00Z,30.2583,-88.2131,17.2,1111122 
DISL,ioos:station:DISL:KATA:1,2011-04-17T18:00:00Z,30.2583,-88.2131,17.84,1111122 
DISL,ioos:station:DISL:KATA:1,2011-04-17T18:30:00Z,30.2583,-88.2131,17.19,1111122 
DISL,ioos:station:DISL:KATA:1,2011-04-17T19:00:00Z,30.2583,-88.2131,17.15,1111122 
DISL,ioos:station:DISL:KATA:1,2011-04-17T19:30:00Z,30.2583,-88.2131,17.4,1111122 
DISL,ioos:station:DISL:KATA:1,2011-04-17T20:00:00Z,30.2583,-88.2131,17.84,1111122 
DISL,ioos:station:DISL:KATA:1,2011-04-17T20:30:00Z,30.2583,-88.2131,17.94,1111122 
DISL,ioos:station:DISL:KATA:1,2011-04-17T21:00:00Z,30.2583,-88.2131,18.0,1111122 
DISL,ioos:station:DISL:KATA:1,2011-04-17T21:30:00Z,30.2583,-88.2131,18.24,1111122 
DISL,ioos:station:DISL:KATA:1,2011-04-17T22:00:00Z,30.2583,-88.2131,18.41,1111122 
DISL,ioos:station:DISL:KATA:1,2011-04-17T22:30:00Z,30.2583,-88.2131,18.68,1111122 
DISL,ioos:station:DISL:KATA:1,2011-04-17T23:00:00Z,30.2583,-88.2131,18.78,1111122 
DISL,ioos:station:DISL:KATA:1,2011-04-17T23:30:00Z,30.2583,-88.2131,18.85,1111122 
DISL,ioos:station:DISL:KATA:1,2011-04-18T00:00:00Z,30.2583,-88.2131,18.92,1111122 
DISL,ioos:station:DISL:KATA:1,2011-04-18T00:30:00Z,30.2583,-88.2131,19.06,1111122 
DISL,ioos:station:DISL:KATA:1,2011-04-18T01:00:00Z,30.2583,-88.2131,19.0,1111122 
DISL,ioos:station:DISL:KATA:1,2011-04-18T01:30:00Z,30.2583,-88.2131,19.13,1111122 
DISL,ioos:station:DISL:KATA:1,2011-04-18T02:00:00Z,30.2583,-88.2131,19.27,1111122 
DISL,ioos:station:DISL:KATA:1,2011-04-18T02:30:00Z,30.2583,-88.2131,19.37,1111122 
DISL,ioos:station:DISL:KATA:1,2011-04-18T03:00:00Z,30.2583,-88.2131,19.27,1111122 
DISL,ioos:station:DISL:KATA:1,2011-04-18T03:30:00Z,30.2583,-88.2131,19.27,1111122 
DISL,ioos:station:DISL:KATA:1,2011-04-18T04:00:00Z,30.2583,-88.2131,19.37,1111122 
DISL,ioos:station:DISL:KATA:1,2011-04-18T04:30:00Z,30.2583,-88.2131,19.54,1111122 
DISL,ioos:station:DISL:KATA:1,2011-04-18T05:00:00Z,30.2583,-88.2131,19.57,1111122 
DISL,ioos:station:DISL:KATA:1,2011-04-18T05:30:00Z,30.2583,-88.2131,19.5,1111122 
DISL,ioos:station:DISL:KATA:1,2011-04-18T06:00:00Z,30.2583,-88.2131,19.61,1111122 
DISL,ioos:station:DISL:KATA:1,2011-04-18T06:30:00Z,30.2583,-88.2131,19.67,1111122 
DISL,ioos:station:DISL:KATA:1,2011-04-18T07:00:00Z,30.2583,-88.2131,19.78,1111122 
DISL,ioos:station:DISL:KATA:1,2011-04-18T07:30:00Z,30.2583,-88.2131,19.78,1111122 
DISL,ioos:station:DISL:KATA:1,2011-04-18T08:00:00Z,30.2583,-88.2131,19.71,1111122 
DISL,ioos:station:DISL:KATA:1,2011-04-18T08:30:00Z,30.2583,-88.2131,19.71,1111122 
DISL,ioos:station:DISL:KATA:1,2011-04-18T09:00:00Z,30.2583,-88.2131,19.84,1111122 
DISL,ioos:station:DISL:KATA:1,2011-04-18T09:30:00Z,30.2583,-88.2131,20.05,1111122 
DISL,ioos:station:DISL:KATA:1,2011-04-18T10:00:00Z,30.2583,-88.2131,20.08,1111122 
DISL,ioos:station:DISL:KATA:1,2011-04-18T10:30:00Z,30.2583,-88.2131,20.12,1111122 
DISL,ioos:station:DISL:KATA:1,2011-04-18T11:00:00Z,30.2583,-88.2131,20.25,1111122 
DISL,ioos:station:DISL:KATA:1,2011-04-18T11:30:00Z,30.2583,-88.2131,20.25,1111122 
DISL,ioos:station:DISL:KATA:1,2011-04-18T12:00:00Z,30.2583,-88.2131,20.45,1111122 
DISL,ioos:station:DISL:KATA:1,2011-04-18T12:30:00Z,30.2583,-88.2131,20.72,1111122 
DISL,ioos:station:DISL:KATA:1,2011-04-18T13:00:00Z,30.2583,-88.2131,20.82,1111122 
DISL,ioos:station:DISL:KATA:1,2011-04-18T13:30:00Z,30.2583,-88.2131,20.85,1111122 
DISL,ioos:station:DISL:KATA:1,2011-04-18T14:00:00Z,30.2583,-88.2131,20.91,1111122 
DISL,ioos:station:DISL:KATA:1,2011-04-18T14:30:00Z,30.2583,-88.2131,21.14,1111122 
DISL,ioos:station:DISL:KATA:1,2011-04-18T15:00:00Z,30.2583,-88.2131,21.1,1111122 
DISL,ioos:station:DISL:KATA:1,2011-04-18T15:30:00Z,30.2583,-88.2131,21.23,1111122 
DISL,ioos:station:DISL:KATA:1,2011-04-18T16:00:00Z,30.2583,-88.2131,21.47,1111122 
DISL,ioos:station:DISL:KATA:1,2011-04-18T16:30:00Z,30.2583,-88.2131,21.5,1111122 
DISL,ioos:station:DISL:KATA:1,2011-04-18T17:00:00Z,30.2583,-88.2131,21.64,1111122 
DISL,ioos:station:DISL:KATA:1,2011-04-18T17:30:00Z,30.2583,-88.2131,21.87,1111122 
DISL,ioos:station:DISL:KATA:1,2011-04-18T18:00:00Z,30.2583,-88.2131,22.01,1111122 
DISL,ioos:station:DISL:KATA:1,2011-04-18T18:30:00Z,30.2583,-88.2131,21.94,1111122 
DISL,ioos:station:DISL:KATA:1,2011-04-18T19:00:00Z,30.2583,-88.2131,22.14,1111122 
DISL,ioos:station:DISL:KATA:1,2011-04-18T19:30:00Z,30.2583,-88.2131,22.18,1111122 
DISL,ioos:station:DISL:KATA:1,2011-04-18T20:00:00Z,30.2583,-88.2131,22.25,1111122 
DISL,ioos:station:DISL:KATA:1,2011-04-18T20:30:00Z,30.2583,-88.2131,22.28,1111122 
DISL,ioos:station:DISL:KATA:1,2011-04-18T21:00:00Z,30.2583,-88.2131,22.28,1111122 
DISL,ioos:station:DISL:KATA:1,2011-04-18T21:30:00Z,30.2583,-88.2131,22.25,1111122 
DISL,ioos:station:DISL:KATA:1,2011-04-18T22:00:00Z,30.2583,-88.2131,22.25,1111122 
DISL,ioos:station:DISL:KATA:1,2011-04-18T22:30:00Z,30.2583,-88.2131,22.21,1111122 
DISL,ioos:station:DISL:KATA:1,2011-04-18T23:00:00Z,30.2583,-88.2131,22.21,1111122 
DISL,ioos:station:DISL:KATA:1,2011-04-18T23:30:00Z,30.2583,-88.2131,22.32,1111122 
DISL,ioos:station:DISL:KATA:1,2011-04-19T00:00:00Z,30.2583,-88.2131,22.05,1111122 
DISL,ioos:station:DISL:KATA:1,2011-04-19T00:30:00Z,30.2583,-88.2131,22.02,1111122 
DISL,ioos:station:DISL:KATA:1,2011-04-19T01:00:00Z,30.2583,-88.2131,22.03,1111122 
DISL,ioos:station:DISL:KATA:1,2011-04-19T01:30:00Z,30.2583,-88.2131,21.96,1111122 
DISL,ioos:station:DISL:KATA:1,2011-04-19T02:00:00Z,30.2583,-88.2131,22.06,1111122 
DISL,ioos:station:DISL:KATA:1,2011-04-19T02:30:00Z,30.2583,-88.2131,22.0,1111122 
DISL,ioos:station:DISL:KATA:1,2011-04-19T03:00:00Z,30.2583,-88.2131,22.1,1111122 
DISL,ioos:station:DISL:KATA:1,2011-04-19T03:30:00Z,30.2583,-88.2131,22.06,1111122 
DISL,ioos:station:DISL:KATA:1,2011-04-19T04:00:00Z,30.2583,-88.2131,22.17,1111122 
DISL,ioos:station:DISL:KATA:1,2011-04-19T04:30:00Z,30.2583,-88.2131,22.06,1111122 
DISL,ioos:station:DISL:KATA:1,2011-04-19T05:00:00Z,30.2583,-88.2131,22.1,1111122 
DISL,ioos:station:DISL:KATA:1,2011-04-19T05:30:00Z,30.2583,-88.2131,22.13,1111122 
DISL,ioos:station:DISL:KATA:1,2011-04-19T06:00:00Z,30.2583,-88.2131,22.17,1111122 
DISL,ioos:station:DISL:KATA:1,2011-04-19T06:30:00Z,30.2583,-88.2131,22.17,1111122 
DISL,ioos:station:DISL:KATA:1,2011-04-19T07:00:00Z,30.2583,-88.2131,22.1,1111122 
DISL,ioos:station:DISL:KATA:1,2011-04-19T07:30:00Z,30.2583,-88.2131,22.13,1111122 
DISL,ioos:station:DISL:KATA:1,2011-04-19T08:00:00Z,30.2583,-88.2131,22.03,1111122 
DISL,ioos:station:DISL:KATA:1,2011-04-19T08:30:00Z,30.2583,-88.2131,22.1,1111122 
DISL,ioos:station:DISL:KATA:1,2011-04-19T09:00:00Z,30.2583,-88.2131,22.0,1111122 
DISL,ioos:station:DISL:KATA:1,2011-04-19T09:30:00Z,30.2583,-88.2131,22.13,1111122 
DISL,ioos:station:DISL:KATA:1,2011-04-19T10:00:00Z,30.2583,-88.2131,22.07,1111122 
DISL,ioos:station:DISL:KATA:1,2011-04-19T10:30:00Z,30.2583,-88.2131,22.1,1111122 
DISL,ioos:station:DISL:KATA:1,2011-04-19T11:00:00Z,30.2583,-88.2131,22.2,1111122 
DISL,ioos:station:DISL:KATA:1,2011-04-19T11:30:00Z,30.2583,-88.2131,22.23,1111122 
DISL,ioos:station:DISL:KATA:1,2011-04-19T12:00:00Z,30.2583,-88.2131,22.16,1111122 
DISL,ioos:station:DISL:KATA:1,2011-04-19T12:30:00Z,30.2583,-88.2131,22.33,1111122 
DISL,ioos:station:DISL:KATA:1,2011-04-19T13:00:00Z,30.2583,-88.2131,22.54,1111122 
DISL,ioos:station:DISL:KATA:1,2011-04-19T13:30:00Z,30.2583,-88.2131,22.63,1111122 
DISL,ioos:station:DISL:KATA:1,2011-04-19T14:00:00Z,30.2583,-88.2131,22.69,1111122 
DISL,ioos:station:DISL:KATA:1,2011-04-19T14:30:00Z,30.2583,-88.2131,22.75,1111122 
DISL,ioos:station:DISL:KATA:1,2011-04-19T15:00:00Z,30.2583,-88.2131,22.99,1111122 
DISL,ioos:station:DISL:KATA:1,2011-04-19T15:30:00Z,30.2583,-88.2131,23.02,1111122 
DISL,ioos:station:DISL:KATA:1,2011-04-19T16:00:00Z,30.2583,-88.2131,23.08,1111122 
DISL,ioos:station:DISL:KATA:1,2011-04-19T16:30:00Z,30.2583,-88.2131,23.12,1111122 
DISL,ioos:station:DISL:KATA:1,2011-04-19T17:00:00Z,30.2583,-88.2131,23.22,1111122 
DISL,ioos:station:DISL:KATA:1,2011-04-19T17:30:00Z,30.2583,-88.2131,23.25,1111122 
DISL,ioos:station:DISL:KATA:1,2011-04-19T18:00:00Z,30.2583,-88.2131,23.32,1111122 
DISL,ioos:station:DISL:KATA:1,2011-04-19T18:30:00Z,30.2583,-88.2131,23.25,1111122 
DISL,ioos:station:DISL:KATA:1,2011-04-19T19:00:00Z,30.2583,-88.2131,23.29,1111122 
DISL,ioos:station:DISL:KATA:1,2011-04-19T19:30:00Z,30.2583,-88.2131,23.25,1111122 
DISL,ioos:station:DISL:KATA:1,2011-04-19T20:00:00Z,30.2583,-88.2131,23.52,1111122 
DISL,ioos:station:DISL:KATA:1,2011-04-19T20:30:00Z,30.2583,-88.2131,23.59,1111122 
DISL,ioos:station:DISL:KATA:1,2011-04-19T21:00:00Z,30.2583,-88.2131,23.49,1111122 
DISL,ioos:station:DISL:KATA:1,2011-04-19T21:30:00Z,30.2583,-88.2131,23.56,1111122 
DISL,ioos:station:DISL:KATA:1,2011-04-19T22:00:00Z,30.2583,-88.2131,23.63,1111122 
DISL,ioos:station:DISL:KATA:1,2011-04-19T22:30:00Z,30.2583,-88.2131,23.52,1111122 
DISL,ioos:station:DISL:KATA:1,2011-04-19T23:00:00Z,30.2583,-88.2131,23.43,1111122 
DISL,ioos:station:DISL:KATA:1,2011-04-19T23:30:00Z,30.2583,-88.2131,23.2,1111122 
DISL,ioos:station:DISL:KATA:1,2011-04-20T00:00:00Z,30.2583,-88.2131,23.23,1111122 
DISL,ioos:station:DISL:KATA:1,2011-04-20T00:30:00Z,30.2583,-88.2131,23.13,1111122 
DISL,ioos:station:DISL:KATA:1,2011-04-20T01:00:00Z,30.2583,-88.2131,23.37,1111122 
DISL,ioos:station:DISL:KATA:1,2011-04-20T01:30:00Z,30.2583,-88.2131,23.54,1111122 
DISL,ioos:station:DISL:KATA:1,2011-04-20T02:00:00Z,30.2583,-88.2131,23.51,1111122 
DISL,ioos:station:DISL:KATA:1,2011-04-20T02:30:00Z,30.2583,-88.2131,23.41,1111122 
DISL,ioos:station:DISL:KATA:1,2011-04-20T03:00:00Z,30.2583,-88.2131,23.31,1111122 
DISL,ioos:station:DISL:KATA:1,2011-04-20T03:30:00Z,30.2583,-88.2131,23.38,1111122 
DISL,ioos:station:DISL:KATA:1,2011-04-20T04:00:00Z,30.2583,-88.2131,23.34,1111122 
DISL,ioos:station:DISL:KATA:1,2011-04-20T04:30:00Z,30.2583,-88.2131,23.31,1111122 
DISL,ioos:station:DISL:KATA:1,2011-04-20T05:00:00Z,30.2583,-88.2131,23.24,1111122 
DISL,ioos:station:DISL:KATA:1,2011-04-20T05:30:00Z,30.2583,-88.2131,23.14,1111122 
DISL,ioos:station:DISL:KATA:1,2011-04-20T06:00:00Z,30.2583,-88.2131,23.21,1111122 
DISL,ioos:station:DISL:KATA:1,2011-04-20T06:30:00Z,30.2583,-88.2131,23.21,1111122 
DISL,ioos:station:DISL:KATA:1,2011-04-20T07:00:00Z,30.2583,-88.2131,23.14,1111122 
DISL,ioos:station:DISL:KATA:1,2011-04-20T07:30:00Z,30.2583,-88.2131,23.04,1111122 
DISL,ioos:station:DISL:KATA:1,2011-04-20T08:00:00Z,30.2583,-88.2131,23.0,1111122 
DISL,ioos:station:DISL:KATA:1,2011-04-20T08:30:00Z,30.2583,-88.2131,23.07,1111122 
DISL,ioos:station:DISL:KATA:1,2011-04-20T09:00:00Z,30.2583,-88.2131,23.11,1111122 
DISL,ioos:station:DISL:KATA:1,2011-04-20T09:30:00Z,30.2583,-88.2131,23.14,1111122 
DISL,ioos:station:DISL:KATA:1,2011-04-20T10:00:00Z,30.2583,-88.2131,23.11,1111122 
DISL,ioos:station:DISL:KATA:1,2011-04-20T10:30:00Z,30.2583,-88.2131,23.04,1111122 
DISL,ioos:station:DISL:KATA:1,2011-04-20T11:00:00Z,30.2583,-88.2131,22.97,1111122 
DISL,ioos:station:DISL:KATA:1,2011-04-20T11:30:00Z,30.2583,-88.2131,22.94,1111122 
DISL,ioos:station:DISL:KATA:1,2011-04-20T12:00:00Z,30.2583,-88.2131,22.98,1111122 
DISL,ioos:station:DISL:KATA:1,2011-04-20T12:30:00Z,30.2583,-88.2131,23.1,1111122 
DISL,ioos:station:DISL:KATA:1,2011-04-20T13:00:00Z,30.2583,-88.2131,23.17,1111122 
DISL,ioos:station:DISL:KATA:1,2011-04-20T13:30:00Z,30.2583,-88.2131,23.21,1111122 
DISL,ioos:station:DISL:KATA:1,2011-04-20T14:00:00Z,30.2583,-88.2131,23.1,1111122 
DISL,ioos:station:DISL:KATA:1,2011-04-20T14:30:00Z,30.2583,-88.2131,23.03,1111122 
DISL,ioos:station:DISL:KATA:1,2011-04-20T15:00:00Z,30.2583,-88.2131,22.72,1111122 
DISL,ioos:station:DISL:KATA:1,2011-04-20T15:30:00Z,30.2583,-88.2131,22.75,1111122 
DISL,ioos:station:DISL:KATA:1,2011-04-20T16:00:00Z,30.2583,-88.2131,22.92,1111122 
DISL,ioos:station:DISL:KATA:1,2011-04-20T16:30:00Z,30.2583,-88.2131,23.06,1111122 
DISL,ioos:station:DISL:KATA:1,2011-04-20T17:00:00Z,30.2583,-88.2131,23.53,1111122 
DISL,ioos:station:DISL:KATA:1,2011-04-20T17:30:00Z,30.2583,-88.2131,24.07,1111122 
DISL,ioos:station:DISL:KATA:1,2011-04-20T18:00:00Z,30.2583,-88.2131,24.13,1111122 
DISL,ioos:station:DISL:KATA:1,2011-04-20T18:30:00Z,30.2583,-88.2131,24.24,1111122 
DISL,ioos:station:DISL:KATA:1,2011-04-20T19:00:00Z,30.2583,-88.2131,24.24,1111122 
DISL,ioos:station:DISL:KATA:1,2011-04-20T19:30:00Z,30.2583,-88.2131,24.03,1111122 
DISL,ioos:station:DISL:KATA:1,2011-04-20T20:00:00Z,30.2583,-88.2131,23.8,1111122 
DISL,ioos:station:DISL:KATA:1,2011-04-20T20:30:00Z,30.2583,-88.2131,23.69,1111122 
DISL,ioos:station:DISL:KATA:1,2011-04-20T21:00:00Z,30.2583,-88.2131,23.8,1111122 
DISL,ioos:station:DISL:KATA:1,2011-04-20T21:30:00Z,30.2583,-88.2131,23.69,1111122 
DISL,ioos:station:DISL:KATA:1,2011-04-20T22:00:00Z,30.2583,-88.2131,23.66,1111122 
DISL,ioos:station:DISL:KATA:1,2011-04-20T22:30:00Z,30.2583,-88.2131,23.59,1111122 
DISL,ioos:station:DISL:KATA:1,2011-04-20T23:00:00Z,30.2583,-88.2131,23.49,1111122 
DISL,ioos:station:DISL:KATA:1,2011-04-20T23:30:00Z,30.2583,-88.2131,23.47,1111122 
DISL,ioos:station:DISL:KATA:1,2011-04-21T00:00:00Z,30.2583,-88.2131,23.26,1111122 
DISL,ioos:station:DISL:KATA:1,2011-04-21T00:30:00Z,30.2583,-88.2131,22.76,1111122 
DISL,ioos:station:DISL:KATA:1,2011-04-21T01:00:00Z,30.2583,-88.2131,22.97,1111122 
DISL,ioos:station:DISL:KATA:1,2011-04-21T01:30:00Z,30.2583,-88.2131,23.07,1111122 
DISL,ioos:station:DISL:KATA:1,2011-04-21T02:00:00Z,30.2583,-88.2131,22.87,1111122 
DISL,ioos:station:DISL:KATA:1,2011-04-21T02:30:00Z,30.2583,-88.2131,23.0,1111122 
DISL,ioos:station:DISL:KATA:1,2011-04-21T03:00:00Z,30.2583,-88.2131,22.87,1111122 
DISL,ioos:station:DISL:KATA:1,2011-04-21T03:30:00Z,30.2583,-88.2131,23.0,1111122 
DISL,ioos:station:DISL:KATA:1,2011-04-21T04:00:00Z,30.2583,-88.2131,23.07,1111122 
DISL,ioos:station:DISL:KATA:1,2011-04-21T04:30:00Z,30.2583,-88.2131,23.24,1111122 
DISL,ioos:station:DISL:KATA:1,2011-04-21T05:00:00Z,30.2583,-88.2131,23.24,1111122 
DISL,ioos:station:DISL:KATA:1,2011-04-21T05:30:00Z,30.2583,-88.2131,23.27,1111122 
DISL,ioos:station:DISL:KATA:1,2011-04-21T06:00:00Z,30.2583,-88.2131,23.27,1111122 
DISL,ioos:station:DISL:KATA:1,2011-04-21T06:30:00Z,30.2583,-88.2131,23.24,1111122 
DISL,ioos:station:DISL:KATA:1,2011-04-21T07:00:00Z,30.2583,-88.2131,23.38,1111122 
DISL,ioos:station:DISL:KATA:1,2011-04-21T07:30:00Z,30.2583,-88.2131,23.21,1111122 
DISL,ioos:station:DISL:KATA:1,2011-04-21T08:00:00Z,30.2583,-88.2131,23.21,1111122 
DISL,ioos:station:DISL:KATA:1,2011-04-21T08:30:00Z,30.2583,-88.2131,23.14,1111122 
DISL,ioos:station:DISL:KATA:1,2011-04-21T09:00:00Z,30.2583,-88.2131,23.07,1111122 
DISL,ioos:station:DISL:KATA:1,2011-04-21T09:30:00Z,30.2583,-88.2131,23.01,1111122 
DISL,ioos:station:DISL:KATA:1,2011-04-21T10:00:00Z,30.2583,-88.2131,22.88,1111122 
DISL,ioos:station:DISL:KATA:1,2011-04-21T10:30:00Z,30.2583,-88.2131,22.81,1111122 
DISL,ioos:station:DISL:KATA:1,2011-04-21T11:00:00Z,30.2583,-88.2131,22.61,1111122 
DISL,ioos:station:DISL:KATA:1,2011-04-21T11:30:00Z,30.2583,-88.2131,22.88,1111122 
DISL,ioos:station:DISL:KATA:1,2011-04-21T12:00:00Z,30.2583,-88.2131,22.91,1111122 
DISL,ioos:station:DISL:KATA:1,2011-04-21T12:30:00Z,30.2583,-88.2131,22.84,1111122 
DISL,ioos:station:DISL:KATA:1,2011-04-21T13:00:00Z,30.2583,-88.2131,23.17,1111122 
DISL,ioos:station:DISL:KATA:1,2011-04-21T13:30:00Z,30.2583,-88.2131,23.1,1111122 
DISL,ioos:station:DISL:KATA:1,2011-04-21T14:00:00Z,30.2583,-88.2131,23.23,1111122 
DISL,ioos:station:DISL:KATA:1,2011-04-21T14:30:00Z,30.2583,-88.2131,23.23,1111122 
DISL,ioos:station:DISL:KATA:1,2011-04-21T15:00:00Z,30.2583,-88.2131,23.13,1111122 
DISL,ioos:station:DISL:KATA:1,2011-04-21T15:30:00Z,30.2583,-88.2131,23.2,1111122 
DISL,ioos:station:DISL:KATA:1,2011-04-21T16:00:00Z,30.2583,-88.2131,23.32,1111122 
DISL,ioos:station:DISL:KATA:1,2011-04-21T16:30:00Z,30.2583,-88.2131,23.15,1111122 
DISL,ioos:station:DISL:KATA:1,2011-04-21T17:00:00Z,30.2583,-88.2131,23.12,1111122 
DISL,ioos:station:DISL:KATA:1,2011-04-21T17:30:00Z,30.2583,-88.2131,23.39,1111122 
DISL,ioos:station:DISL:KATA:1,2011-04-21T18:00:00Z,30.2583,-88.2131,23.39,1111122 